STARLINK-35574, 66111

Orbit data source: Space-Track

STARLINK-35574, 66111 is a payload satellite owned by SpaceX/Seattle (US) in LEO that was launched on Sun, 19 Oct 2025 UTC via an FALCON 9 launch vehicle from the Air Force Western Test Range (AFWTR). Payload-class satellites include a variety of spacecraft equipped with specific instruments for various scientific and technological missions. These include communications satellites like Starlink; space stations such as the ISS; scientific satellites like the Hubble; Earth observation satellites from companies like Planet Labs, Umbra, and HawkEye 360; GPS; miniature CubeSats for education and research; and military/defense satellites.

Loading next visibility...
Identifier
66111, 2025-236AB
Orbit
LEO
Country
Flag of USUS
Related business
Manufacturer
SpaceX/Seattle
Mission
Operational Commercial Communications
Bus & Motor
STARLINK V2MO, Unknown motor
Mass
575 kg wet, ~530 kg dry
Launch date (UTC)
2025-10-19 (6 months ago)
Launch vehicle
FALCON 9
Launch site
Air Force Western Test Range (AFWTR)
Object type
Payload
Rocket body
Debris
Shape & HBR
Box + 2 Pan, 17.7 m
Radar Cross Section
36.964 m²

Expand to show TLE details & history
Last TLE update: 19 hours ago

TLE from 19 hours ago
0 STARLINK-35574
1 66111U 25236AB  26094.97010930  .00026460  00000-0  90223-3 0  9990
2 66111  53.1594 342.1272 0000821  98.8348 261.2746 15.30202549 26902
Epoch: 2026-04-04T23:16Z
TLE epoch observation values (Epoch: 2026-04-04T23:16:57.443Z)
Latitude
-0°
Longitude
159.6056°
Altitude
476.192 km
Speed
7.629 km/s
True Right ascension
22h 48m 30s
True Declination
0° 00' 00"
Sunlit
Object was in daylight at epoch
Visualization orbit readout
Latitude
Unknown
Longitude
Unknown
Altitude
Unknown
Speed
Unknown
Apparent Right ascension
Unknown
Apparent Declination
Unknown
Sunlit
N/A
Visualization observer readout
Local Sidereal Time
00:10:31
Azimuth
Unknown
Elevation
Unknown
Doppler factor
Unknown
Orbital elements
Apogee altitude
476.027 km
Perigee altitude
474.901 km
Semi-major axis
6,853.601 km
Eccentricity
0.00008
Inclination
53.1594°
RAAN
342.1272°
Arg. of periapsis
98.8348°
True anomaly
261.2653°
Mean anomaly
261.2746°
Eccentric anomaly
261.26995°
Mean motion
3.8253 °/min
Orbital period
94.11 mins
BSTAR
0.00090223
Loading maneuver chart data...
Computing Atmospheric mass density...
Loading historical data...
Loading historical data...
Loading historical data...
Loading historical data...
Loading historical data...
Loading historical data...
Loading historical data...

Documentation

Showing up to 5 results
|